START_TIME,STEP,MOV.,AL01,t_acc.,AL02,t_acc.,E37,t_acc.,H21,t_acc.
1986-01-25 18:00:35.670 ,6,0,0.,24.0,0.,24.0,0.,24.0,0.,24.0
1986-01-25 18:00:59.670 ,5,1,0.,24.0,0.,24.0,0.,24.0,0.,24.0
1986-01-25 18:01:23.670 ,5,0,0.,24.0,0.,24.0,0.,24.0,0.,24.0
1986-01-25 18:01:47.670 ,4,1,0.,24.0,0.,24.0,0.,24.0,0.,24.0
1986-01-25 18:02:11.670 ,4,0,0.,24.0,0.,24.0,0.,24.0,0.,24.0
1986-01-25 18:02:35.670 ,3,1,0.,24.0,0.,24.0,0.,24.0,0.,24.0
1986-01-25 18:02:59.670 ,3,0,0.,24.0,0.,24.0,0.,24.0,0.,24.0
1986-01-25 18:03:23.670 ,2,1,0.,24.0,0.,24.0,0.,24.0,0.,24.0
1986-01-25 18:03:47.670 ,2,0,0.,24.0,0.,24.0,0.,24.0,0.,24.0
1986-01-25 18:04:11.670 ,1,1,0.,24.0,0.,24.0,0.,24.0,0.,24.0
1986-01-25 18:04:35.670 ,1,0,0.,24.0,0.,24.0,0.,24.0,0.,24.0
1986-01-25 18:04:59.670 ,0,1,0.,24.0,0.,24.0,0.,24.0,0.,24.0
1986-01-25 18:05:23.670 ,0,0,0.,24.0,0.,24.0,0.,24.0,0.,24.0
1986-01-25 18:05:47.670 ,0,1,0.,24.0,0.,24.0,0.,24.0,0.,24.0
1986-01-25 18:06:11.670 ,0,0,0.,24.0,0.,24.0,0.,24.0,0.,24.0
1986-01-25 18:06:35.670 ,1,1,0.,24.0,0.,24.0,0.,24.0,0.,24.0
1986-01-25 18:06:59.670 ,1,0,0.,24.0,0.,24.0,0.,24.0,0.,24.0
1986-01-25 18:07:23.670 ,2,1,0.,24.0,0.,24.0,0.,24.0,0.,24.0
1986-01-25 18:07:47.670 ,2,0,0.,24.0,0.,24.0,0.,24.0,0.,24.0
1986-01-25 18:08:11.670 ,3,1,0.,24.0,0.,24.0,0.,24.0,0.,24.0
1986-01-25 18:08:35.670 ,3,0,0.,24.0,0.,24.0,0.,24.0,0.,24.0
1986-01-25 18:08:59.670 ,4,1,1.,24.0,0.,24.0,0.,24.0,0.,24.0
1986-01-25 18:09:23.670 ,4,0,0.,24.0,0.,24.0,0.,24.0,0.,24.0
1986-01-25 18:09:47.670 ,5,1,0.,24.0,0.,24.0,0.,24.0,0.,24.0
1986-01-25 18:10:11.670 ,5,0,0.,24.0,0.,24.0,0.,24.0,0.,24.0
1986-01-25 18:10:35.670 ,6,1,2.,24.0,0.,24.0,0.,24.0,0.,24.0
1986-01-25 18:10:59.670 ,6,0,0.,24.0,0.,24.0,0.,24.0,0.,24.0
1986-01-25 18:11:23.670 ,7,1,11.,24.0,0.,24.0,0.,24.0,0.,24.0
1986-01-25 18:11:47.670 ,7,0,34.,24.0,0.,24.0,0.,24.0,0.,24.0
1986-01-25 18:12:11.670 ,7,1,27.,24.0,0.,24.0,0.,24.0,0.,24.0
1986-01-25 18:12:35.670 ,7,0,32.,24.0,0.,24.0,0.,24.0,0.,24.0
1986-01-25 18:12:59.670 ,6,1,27.,24.0,0.,24.0,0.,24.0,0.,24.0
1986-01-25 18:13:23.670 ,6,0,0.,24.0,0.,24.0,0.,24.0,0.,24.0
1986-01-25 18:13:47.670 ,5,1,0.,24.0,0.,24.0,0.,24.0,0.,24.0
1986-01-25 18:14:11.670 ,5,0,0.,24.0,0.,24.0,0.,24.0,0.,24.0
1986-01-25 18:14:35.670 ,4,1,0.,24.0,0.,24.0,0.,24.0,0.,24.0
1986-01-25 18:14:59.670 ,4,0,0.,24.0,0.,24.0,0.,24.0,0.,24.0
1986-01-25 18:15:23.670 ,3,1,0.,24.0,0.,24.0,0.,24.0,0.,24.0
1986-01-25 18:15:47.670 ,3,0,0.,24.0,0.,24.0,0.,24.0,0.,24.0
1986-01-25 18:16:11.670 ,2,1,0.,24.0,0.,24.0,0.,24.0,0.,24.0
1986-01-25 18:16:35.670 ,2,0,0.,24.0,0.,24.0,0.,24.0,0.,24.0
1986-01-25 18:16:59.670 ,1,1,0.,24.0,0.,24.0,0.,24.0,0.,24.0
1986-01-25 18:17:23.670 ,1,0,0.,24.0,0.,24.0,0.,24.0,0.,24.0
1986-01-25 18:17:47.670 ,0,1,0.,24.0,0.,24.0,0.,24.0,0.,24.0
1986-01-25 18:18:11.670 ,0,0,0.,24.0,0.,24.0,0.,24.0,0.,24.0
1986-01-25 18:18:35.670 ,0,1,0.,24.0,0.,24.0,0.,24.0,0.,24.0
1986-01-25 18:18:59.670 ,0,0,0.,24.0,0.,24.0,0.,24.0,0.,24.0
1986-01-25 18:19:23.670 ,1,1,0.,24.0,0.,24.0,0.,24.0,0.,24.0
1986-01-25 18:19:47.670 ,1,0,0.,24.0,0.,24.0,0.,24.0,0.,24.0
1986-01-25 18:20:11.670 ,2,1,0.,24.0,0.,24.0,0.,24.0,0.,24.0
1986-01-25 18:20:35.670 ,2,0,0.,24.0,0.,24.0,0.,24.0,0.,24.0
1986-01-25 18:20:59.670 ,3,1,0.,24.0,0.,24.0,0.,24.0,0.,24.0
1986-01-25 18:21:23.670 ,3,0,0.,24.0,0.,24.0,0.,24.0,0.,24.0
1986-01-25 18:21:47.670 ,4,1,0.,24.0,0.,24.0,0.,24.0,0.,24.0
1986-01-25 18:22:11.670 ,4,0,0.,24.0,0.,24.0,0.,24.0,0.,24.0
1986-01-25 18:22:35.670 ,5,1,0.,24.0,0.,24.0,0.,24.0,0.,24.0
1986-01-25 18:22:59.670 ,5,0,0.,24.0,1.,24.0,0.,24.0,0.,24.0
1986-01-25 18:23:23.670 ,6,1,0.,24.0,0.,24.0,0.,24.0,0.,24.0
1986-01-25 18:23:47.670 ,6,0,0.,24.0,0.,24.0,0.,24.0,0.,24.0
1986-01-25 18:24:11.670 ,7,1,8.,24.0,0.,24.0,0.,24.0,0.,24.0
1986-01-25 18:24:35.670 ,7,0,36.,24.0,0.,24.0,0.,24.0,0.,24.0
1986-01-25 18:24:59.670 ,7,1,34.,24.0,0.,24.0,0.,24.0,0.,24.0
1986-01-25 18:25:23.670 ,7,0,38.,24.0,0.,24.0,0.,24.0,0.,24.0
1986-01-25 18:25:47.670 ,6,1,24.,24.0,0.,24.0,0.,24.0,0.,24.0
1986-01-25 18:26:11.670 ,6,0,0.,24.0,0.,24.0,0.,24.0,0.,24.0
1986-01-25 18:26:35.670 ,5,1,0.,24.0,0.,24.0,0.,24.0,0.,24.0
1986-01-25 18:26:59.670 ,5,0,0.,24.0,0.,24.0,0.,24.0,0.,24.0
1986-01-25 18:27:23.670 ,4,1,0.,24.0,0.,24.0,0.,24.0,0.,24.0
1986-01-25 18:27:47.670 ,4,0,0.,24.0,0.,24.0,0.,24.0,0.,24.0
1986-01-25 18:28:11.670 ,3,1,0.,24.0,0.,24.0,0.,24.0,0.,24.0
1986-01-25 18:28:35.670 ,3,0,0.,24.0,0.,24.0,0.,24.0,0.,24.0
1986-01-25 18:28:59.670 ,2,1,0.,24.0,0.,24.0,0.,24.0,0.,24.0
1986-01-25 18:29:23.670 ,2,0,0.,24.0,0.,24.0,0.,24.0,0.,24.0
1986-01-25 18:29:47.670 ,1,1,0.,24.0,0.,24.0,0.,24.0,0.,24.0
1986-01-25 18:30:11.670 ,1,0,0.,24.0,0.,24.0,0.,24.0,0.,24.0
1986-01-25 18:30:35.670 ,0,1,0.,24.0,0.,24.0,0.,24.0,0.,24.0
1986-01-25 18:30:59.670 ,0,0,0.,24.0,0.,24.0,0.,24.0,0.,24.0
1986-01-25 18:31:23.670 ,0,1,0.,24.0,0.,24.0,0.,24.0,0.,24.0
1986-01-25 18:31:47.670 ,0,0,0.,24.0,0.,24.0,0.,24.0,0.,24.0
1986-01-25 18:32:11.670 ,1,1,0.,24.0,0.,24.0,0.,24.0,0.,24.0
1986-01-25 18:32:35.670 ,1,0,0.,24.0,0.,24.0,0.,24.0,0.,24.0
1986-01-25 18:32:59.670 ,2,1,0.,24.0,0.,24.0,0.,24.0,0.,24.0
1986-01-25 18:33:23.670 ,2,0,1.,24.0,0.,24.0,0.,24.0,0.,24.0
1986-01-25 18:33:47.660 ,3,1,0.,24.0,0.,24.0,0.,24.0,0.,24.0
1986-01-25 18:34:11.660 ,3,0,0.,24.0,0.,24.0,0.,24.0,0.,24.0
1986-01-25 18:34:35.660 ,4,1,0.,24.0,0.,24.0,0.,24.0,0.,24.0
1986-01-25 18:34:59.660 ,4,0,0.,24.0,0.,24.0,0.,24.0,0.,24.0
1986-01-25 18:35:23.660 ,5,1,0.,24.0,0.,24.0,0.,24.0,0.,24.0
1986-01-25 18:35:47.660 ,5,0,0.,24.0,0.,24.0,0.,24.0,0.,24.0
1986-01-25 18:36:11.660 ,6,1,0.,24.0,0.,24.0,0.,24.0,0.,24.0
1986-01-25 18:36:35.660 ,6,0,0.,24.0,0.,24.0,0.,24.0,0.,24.0
1986-01-25 18:36:59.660 ,7,1,6.,24.0,0.,24.0,0.,24.0,0.,24.0
1986-01-25 18:37:23.660 ,7,0,26.,24.0,0.,24.0,0.,24.0,0.,24.0
1986-01-25 18:37:47.660 ,7,1,29.,24.0,0.,24.0,0.,24.0,0.,24.0
1986-01-25 18:38:11.660 ,7,0,29.,24.0,0.,24.0,0.,24.0,0.,24.0
1986-01-25 18:38:35.660 ,6,1,25.,24.0,0.,24.0,0.,24.0,0.,24.0
1986-01-25 18:38:59.660 ,6,0,0.,24.0,0.,24.0,0.,24.0,0.,24.0
1986-01-25 18:39:23.660 ,5,1,0.,24.0,0.,24.0,0.,24.0,0.,24.0
1986-01-25 18:39:47.660 ,5,0,0.,24.0,0.,24.0,0.,24.0,0.,24.0
1986-01-25 18:40:11.660 ,4,1,0.,24.0,0.,24.0,0.,24.0,0.,24.0
1986-01-25 18:40:35.660 ,4,0,0.,24.0,0.,24.0,0.,24.0,0.,24.0
1986-01-25 18:40:59.660 ,3,1,0.,24.0,0.,24.0,0.,24.0,0.,24.0
1986-01-25 18:41:23.660 ,3,0,0.,24.0,0.,24.0,0.,24.0,0.,24.0
1986-01-25 18:41:47.660 ,2,1,0.,24.0,0.,24.0,0.,24.0,0.,24.0
1986-01-25 18:42:11.660 ,2,0,0.,24.0,0.,24.0,0.,24.0,0.,24.0
1986-01-25 18:42:35.660 ,1,1,0.,24.0,0.,24.0,0.,24.0,0.,24.0
1986-01-25 18:42:59.660 ,1,0,1.,24.0,0.,24.0,0.,24.0,0.,24.0
1986-01-25 18:43:23.660 ,0,1,0.,24.0,0.,24.0,0.,24.0,0.,24.0
1986-01-25 18:43:47.660 ,0,0,0.,24.0,0.,24.0,0.,24.0,0.,24.0
1986-01-25 18:44:11.660 ,0,1,0.,24.0,0.,24.0,0.,24.0,0.,24.0
1986-01-25 18:44:35.660 ,0,0,0.,24.0,0.,24.0,0.,24.0,0.,24.0
1986-01-25 18:44:59.660 ,1,1,0.,24.0,0.,24.0,0.,24.0,0.,24.0
1986-01-25 18:45:23.660 ,1,0,0.,24.0,0.,24.0,0.,24.0,0.,24.0
1986-01-25 18:45:47.660 ,2,1,0.,24.0,0.,24.0,0.,24.0,0.,24.0
1986-01-25 18:46:11.660 ,2,0,0.,24.0,0.,24.0,0.,24.0,0.,24.0
1986-01-25 18:46:35.660 ,3,1,0.,24.0,0.,24.0,0.,24.0,0.,24.0
1986-01-25 18:46:59.660 ,3,0,0.,24.0,0.,24.0,0.,24.0,0.,24.0
1986-01-25 18:47:23.660 ,4,1,0.,24.0,0.,24.0,0.,24.0,0.,24.0
1986-01-25 18:47:47.660 ,4,0,0.,24.0,0.,24.0,0.,24.0,0.,24.0
1986-01-25 18:48:11.660 ,5,1,1.,24.0,0.,24.0,0.,24.0,0.,24.0
1986-01-25 18:48:35.660 ,5,0,0.,24.0,0.,24.0,0.,24.0,0.,24.0
1986-01-25 18:48:59.660 ,6,1,0.,24.0,0.,24.0,0.,24.0,0.,24.0
1986-01-25 18:49:23.660 ,6,0,0.,24.0,0.,24.0,0.,24.0,0.,24.0
1986-01-25 18:49:47.660 ,7,1,7.,24.0,0.,24.0,0.,24.0,0.,24.0
1986-01-25 18:50:11.660 ,7,0,26.,24.0,0.,24.0,0.,24.0,0.,24.0
1986-01-25 18:50:35.660 ,7,1,21.,24.0,0.,24.0,0.,24.0,0.,24.0
1986-01-25 18:50:59.660 ,7,0,30.,24.0,0.,24.0,0.,24.0,0.,24.0
1986-01-25 18:51:23.660 ,6,1,25.,24.0,0.,24.0,0.,24.0,0.,24.0
1986-01-25 18:51:47.660 ,6,0,0.,24.0,0.,24.0,0.,24.0,0.,24.0
1986-01-25 18:52:11.660 ,5,1,0.,24.0,0.,24.0,0.,24.0,0.,24.0
1986-01-25 18:52:35.660 ,5,0,0.,24.0,0.,24.0,0.,24.0,0.,24.0
1986-01-25 18:52:59.660 ,4,1,0.,24.0,0.,24.0,0.,24.0,0.,24.0
1986-01-25 18:53:23.660 ,4,0,0.,24.0,0.,24.0,0.,24.0,0.,24.0
1986-01-25 18:53:47.660 ,3,1,0.,24.0,0.,24.0,0.,24.0,0.,24.0
1986-01-25 18:54:11.660 ,3,0,0.,24.0,0.,24.0,0.,24.0,0.,24.0
1986-01-25 18:54:35.660 ,2,1,0.,24.0,0.,24.0,0.,24.0,0.,24.0
1986-01-25 18:54:59.660 ,2,0,0.,24.0,0.,24.0,0.,24.0,0.,24.0
1986-01-25 18:55:23.660 ,1,1,0.,24.0,0.,24.0,0.,24.0,0.,24.0
1986-01-25 18:55:47.660 ,1,0,0.,24.0,0.,24.0,0.,24.0,0.,24.0
1986-01-25 18:56:11.660 ,0,1,0.,24.0,0.,24.0,0.,24.0,0.,24.0
1986-01-25 18:56:35.660 ,0,0,0.,24.0,0.,24.0,0.,24.0,0.,24.0
1986-01-25 18:56:59.660 ,0,1,0.,24.0,0.,24.0,0.,24.0,0.,24.0
1986-01-25 18:57:23.660 ,0,0,0.,24.0,0.,24.0,0.,24.0,0.,24.0
1986-01-25 18:57:47.660 ,1,1,0.,24.0,0.,24.0,0.,24.0,0.,24.0
1986-01-25 18:58:11.660 ,1,0,0.,24.0,0.,24.0,0.,24.0,0.,24.0
1986-01-25 18:58:35.660 ,2,1,0.,24.0,0.,24.0,0.,24.0,0.,24.0
1986-01-25 18:58:59.660 ,2,0,0.,24.0,0.,24.0,0.,24.0,0.,24.0
1986-01-25 18:59:23.660 ,3,1,0.,24.0,0.,24.0,0.,24.0,0.,24.0
1986-01-25 18:59:47.660 ,3,0,0.,24.0,0.,24.0,0.,24.0,0.,24.0
1986-01-25 19:00:11.660 ,4,1,0.,24.0,0.,24.0,0.,24.0,0.,24.0
1986-01-25 19:00:35.660 ,4,0,0.,24.0,0.,24.0,0.,24.0,0.,24.0
1986-01-25 19:00:59.660 ,5,1,1.,24.0,0.,24.0,0.,24.0,0.,24.0
1986-01-25 19:01:23.660 ,5,0,0.,24.0,0.,24.0,0.,24.0,0.,24.0
1986-01-25 19:01:47.660 ,6,1,0.,24.0,0.,24.0,0.,24.0,0.,24.0
1986-01-25 19:02:11.660 ,6,0,0.,24.0,0.,24.0,0.,24.0,0.,24.0
1986-01-25 19:02:35.660 ,7,1,7.,24.0,0.,24.0,0.,24.0,0.,24.0
1986-01-25 19:02:59.660 ,7,0,33.,24.0,0.,24.0,0.,24.0,0.,24.0
1986-01-25 19:03:23.660 ,7,1,27.,24.0,0.,24.0,0.,24.0,0.,24.0
1986-01-25 19:03:47.660 ,7,0,28.,24.0,0.,24.0,0.,24.0,0.,24.0
1986-01-25 19:04:11.660 ,6,1,16.,24.0,0.,24.0,0.,24.0,0.,24.0
1986-01-25 19:04:35.660 ,6,0,0.,24.0,0.,24.0,0.,24.0,0.,24.0
1986-01-25 19:04:59.660 ,5,1,0.,24.0,0.,24.0,0.,24.0,0.,24.0
1986-01-25 19:05:23.660 ,5,0,0.,24.0,0.,24.0,0.,24.0,0.,24.0
1986-01-25 19:05:47.660 ,4,1,0.,24.0,0.,24.0,0.,24.0,0.,24.0
1986-01-25 19:06:11.660 ,4,0,0.,24.0,0.,24.0,0.,24.0,0.,24.0
1986-01-25 19:06:35.660 ,3,1,0.,24.0,0.,24.0,0.,24.0,0.,24.0
1986-01-25 19:06:59.660 ,3,0,0.,24.0,0.,24.0,0.,24.0,0.,24.0
1986-01-25 19:07:23.660 ,2,1,0.,24.0,1.,24.0,0.,24.0,0.,24.0
1986-01-25 19:07:47.660 ,2,0,0.,24.0,0.,24.0,0.,24.0,0.,24.0
1986-01-25 19:08:11.660 ,1,1,0.,24.0,0.,24.0,0.,24.0,0.,24.0
1986-01-25 19:08:35.660 ,1,0,0.,24.0,0.,24.0,0.,24.0,0.,24.0
1986-01-25 19:08:59.660 ,0,1,1.,24.0,0.,24.0,0.,24.0,0.,24.0
1986-01-25 19:09:23.660 ,0,0,0.,24.0,0.,24.0,0.,24.0,0.,24.0
1986-01-25 19:09:47.660 ,0,1,0.,24.0,0.,24.0,0.,24.0,0.,24.0
1986-01-25 19:10:11.660 ,0,0,1.,24.0,0.,24.0,0.,24.0,0.,24.0
1986-01-25 19:10:35.660 ,1,1,0.,24.0,0.,24.0,0.,24.0,0.,24.0
1986-01-25 19:10:59.660 ,1,0,0.,24.0,0.,24.0,0.,24.0,0.,24.0
1986-01-25 19:11:23.660 ,2,1,0.,24.0,0.,24.0,0.,24.0,0.,24.0
1986-01-25 19:11:47.660 ,2,0,0.,24.0,0.,24.0,0.,24.0,0.,24.0
1986-01-25 19:12:11.660 ,3,1,0.,24.0,0.,24.0,0.,24.0,0.,24.0
1986-01-25 19:12:35.660 ,3,0,0.,24.0,0.,24.0,0.,24.0,0.,24.0
1986-01-25 19:12:59.660 ,4,1,0.,24.0,0.,24.0,0.,24.0,0.,24.0
1986-01-25 19:13:23.660 ,4,0,0.,24.0,0.,24.0,0.,24.0,0.,24.0
1986-01-25 19:13:47.660 ,5,1,0.,24.0,0.,24.0,0.,24.0,0.,24.0
1986-01-25 19:14:11.660 ,5,0,0.,24.0,0.,24.0,0.,24.0,0.,24.0
1986-01-25 19:14:35.660 ,6,1,0.,24.0,0.,24.0,0.,24.0,0.,24.0
1986-01-25 19:14:59.660 ,6,0,0.,24.0,0.,24.0,0.,24.0,0.,24.0
1986-01-25 19:15:23.660 ,7,1,10.,24.0,0.,24.0,0.,24.0,0.,24.0
1986-01-25 19:15:47.660 ,7,0,29.,24.0,0.,24.0,0.,24.0,0.,24.0
1986-01-25 19:16:11.660 ,7,1,37.,24.0,0.,24.0,0.,24.0,0.,24.0
1986-01-25 19:16:35.660 ,7,0,40.,24.0,0.,24.0,0.,24.0,0.,24.0
1986-01-25 19:16:59.660 ,6,1,21.,24.0,0.,24.0,0.,24.0,0.,24.0
1986-01-25 19:17:23.660 ,6,0,0.,24.0,0.,24.0,0.,24.0,0.,24.0
1986-01-25 19:17:47.660 ,5,1,0.,24.0,0.,24.0,0.,24.0,0.,24.0
1986-01-25 19:18:11.660 ,5,0,0.,24.0,0.,24.0,0.,24.0,0.,24.0
1986-01-25 19:18:35.660 ,4,1,0.,24.0,0.,24.0,0.,24.0,0.,24.0
1986-01-25 19:18:59.660 ,4,0,0.,24.0,1.,24.0,0.,24.0,0.,24.0
1986-01-25 19:19:23.660 ,3,1,0.,24.0,0.,24.0,0.,24.0,0.,24.0
1986-01-25 19:19:47.660 ,3,0,0.,24.0,0.,24.0,0.,24.0,0.,24.0
1986-01-25 19:20:11.660 ,2,1,0.,24.0,0.,24.0,0.,24.0,0.,24.0
1986-01-25 19:20:35.660 ,2,0,0.,24.0,0.,24.0,0.,24.0,0.,24.0
1986-01-25 19:20:59.660 ,1,1,0.,24.0,0.,24.0,0.,24.0,0.,24.0
1986-01-25 19:21:23.660 ,1,0,1.,24.0,0.,24.0,0.,24.0,0.,24.0
1986-01-25 19:21:47.660 ,0,1,0.,24.0,0.,24.0,0.,24.0,0.,24.0
1986-01-25 19:22:11.660 ,0,0,0.,24.0,0.,24.0,0.,24.0,0.,24.0
1986-01-25 19:22:35.660 ,0,1,0.,24.0,0.,24.0,0.,24.0,0.,24.0
1986-01-25 19:22:59.660 ,0,0,0.,24.0,0.,24.0,0.,24.0,0.,24.0
1986-01-25 19:23:23.660 ,1,1,0.,24.0,0.,24.0,0.,24.0,0.,24.0
1986-01-25 19:23:47.660 ,1,0,0.,24.0,0.,24.0,0.,24.0,0.,24.0
1986-01-25 19:24:11.660 ,2,1,0.,24.0,0.,24.0,0.,24.0,0.,24.0
1986-01-25 19:24:35.660 ,2,0,0.,24.0,0.,24.0,0.,24.0,0.,24.0
1986-01-25 19:24:59.660 ,3,1,0.,24.0,0.,24.0,0.,24.0,0.,24.0
1986-01-25 19:25:23.660 ,3,0,0.,24.0,0.,24.0,0.,24.0,0.,24.0
1986-01-25 19:25:47.660 ,4,1,0.,24.0,0.,24.0,0.,24.0,0.,24.0
1986-01-25 19:26:11.660 ,4,0,0.,24.0,0.,24.0,0.,24.0,0.,24.0
1986-01-25 19:26:35.660 ,5,1,0.,24.0,0.,24.0,0.,24.0,0.,24.0
1986-01-25 19:26:59.660 ,5,0,0.,24.0,0.,24.0,0.,24.0,0.,24.0
1986-01-25 19:27:23.660 ,6,1,0.,24.0,0.,24.0,0.,24.0,0.,24.0
1986-01-25 19:27:47.660 ,6,0,0.,24.0,0.,24.0,0.,24.0,0.,24.0
1986-01-25 19:28:11.660 ,7,1,9.,24.0,0.,24.0,0.,24.0,0.,24.0
1986-01-25 19:28:35.660 ,7,0,20.,24.0,0.,24.0,0.,24.0,0.,24.0
1986-01-25 19:28:59.660 ,7,1,30.,24.0,0.,24.0,0.,24.0,0.,24.0
1986-01-25 19:29:23.660 ,7,0,41.,24.0,0.,24.0,0.,24.0,0.,24.0
1986-01-25 19:29:47.660 ,6,1,24.,24.0,0.,24.0,0.,24.0,0.,24.0
1986-01-25 19:30:11.660 ,6,0,0.,24.0,0.,24.0,0.,24.0,0.,24.0
1986-01-25 19:30:35.660 ,5,1,0.,24.0,0.,24.0,0.,24.0,0.,24.0
1986-01-25 19:30:59.660 ,5,0,0.,24.0,0.,24.0,0.,24.0,0.,24.0
1986-01-25 19:31:23.660 ,4,1,0.,24.0,0.,24.0,0.,24.0,0.,24.0
1986-01-25 19:31:47.660 ,4,0,0.,24.0,0.,24.0,0.,24.0,0.,24.0
1986-01-25 19:32:11.660 ,3,1,0.,24.0,0.,24.0,0.,24.0,0.,24.0
1986-01-25 19:32:35.660 ,3,0,0.,24.0,0.,24.0,0.,24.0,0.,24.0
1986-01-25 19:32:59.660 ,2,1,0.,24.0,0.,24.0,0.,24.0,0.,24.0
1986-01-25 19:33:23.660 ,2,0,0.,24.0,0.,24.0,0.,24.0,0.,24.0
1986-01-25 19:33:47.660 ,1,1,0.,24.0,0.,24.0,0.,24.0,0.,24.0
1986-01-25 19:34:11.660 ,1,0,0.,24.0,0.,24.0,0.,24.0,0.,24.0
1986-01-25 19:34:35.660 ,0,1,0.,24.0,0.,24.0,0.,24.0,0.,24.0
1986-01-25 19:34:59.660 ,0,0,0.,24.0,0.,24.0,0.,24.0,0.,24.0
1986-01-25 19:35:23.660 ,0,1,0.,24.0,0.,24.0,0.,24.0,0.,24.0
1986-01-25 19:35:47.660 ,0,0,0.,24.0,0.,24.0,0.,24.0,0.,24.0
1986-01-25 19:36:11.660 ,1,1,0.,24.0,0.,24.0,0.,24.0,0.,24.0
1986-01-25 19:36:35.660 ,1,0,0.,24.0,0.,24.0,0.,24.0,0.,24.0
1986-01-25 19:36:59.660 ,2,1,0.,24.0,0.,24.0,0.,24.0,0.,24.0
1986-01-25 19:37:23.660 ,2,0,0.,24.0,0.,24.0,0.,24.0,0.,24.0
1986-01-25 19:37:47.660 ,3,1,0.,24.0,0.,24.0,0.,24.0,0.,24.0
1986-01-25 19:38:11.660 ,3,0,0.,24.0,0.,24.0,0.,24.0,0.,24.0
1986-01-25 19:38:35.660 ,4,1,0.,24.0,0.,24.0,0.,24.0,0.,24.0
1986-01-25 19:38:59.660 ,4,0,0.,24.0,0.,24.0,0.,24.0,0.,24.0
1986-01-25 19:39:23.660 ,5,1,0.,24.0,0.,24.0,0.,24.0,0.,24.0
1986-01-25 19:39:47.660 ,5,0,1.,24.0,0.,24.0,0.,24.0,0.,24.0
1986-01-25 19:40:11.660 ,6,1,0.,24.0,0.,24.0,0.,24.0,0.,24.0
1986-01-25 19:40:35.660 ,6,0,0.,24.0,0.,24.0,0.,24.0,0.,24.0
1986-01-25 19:40:59.660 ,7,1,6.,24.0,0.,24.0,0.,24.0,0.,24.0
1986-01-25 19:41:23.660 ,7,0,29.,24.0,0.,24.0,0.,24.0,0.,24.0
1986-01-25 19:41:47.660 ,7,1,33.,24.0,0.,24.0,0.,24.0,0.,24.0
1986-01-25 19:42:11.660 ,7,0,29.,24.0,0.,24.0,0.,24.0,0.,24.0
1986-01-25 19:42:35.660 ,6,1,23.,24.0,0.,24.0,0.,24.0,0.,24.0
1986-01-25 19:42:59.660 ,6,0,0.,24.0,0.,24.0,0.,24.0,0.,24.0
1986-01-25 19:43:23.660 ,5,1,0.,24.0,0.,24.0,0.,24.0,0.,24.0
1986-01-25 19:43:47.660 ,5,0,0.,24.0,0.,24.0,0.,24.0,0.,24.0
1986-01-25 19:44:11.660 ,4,1,0.,24.0,0.,24.0,0.,24.0,0.,24.0
1986-01-25 19:44:35.660 ,4,0,0.,24.0,0.,24.0,0.,24.0,0.,24.0
1986-01-25 19:44:59.660 ,3,1,0.,24.0,0.,24.0,0.,24.0,0.,24.0
1986-01-25 19:45:23.660 ,3,0,0.,24.0,0.,24.0,0.,24.0,0.,24.0
1986-01-25 19:45:47.660 ,2,1,0.,24.0,0.,24.0,0.,24.0,0.,24.0
1986-01-25 19:46:11.660 ,2,0,0.,24.0,0.,24.0,0.,24.0,0.,24.0
1986-01-25 19:46:35.660 ,1,1,0.,24.0,0.,24.0,0.,24.0,0.,24.0
1986-01-25 19:46:59.660 ,1,0,0.,24.0,0.,24.0,0.,24.0,0.,24.0
1986-01-25 19:47:23.660 ,0,1,0.,24.0,0.,24.0,0.,24.0,0.,24.0
1986-01-25 19:47:47.660 ,0,0,0.,24.0,0.,24.0,0.,24.0,0.,24.0
1986-01-25 19:48:11.660 ,0,1,0.,24.0,0.,24.0,0.,24.0,0.,24.0
1986-01-25 19:48:35.660 ,0,0,0.,24.0,0.,24.0,0.,24.0,0.,24.0
1986-01-25 19:48:59.660 ,1,1,0.,24.0,0.,24.0,0.,24.0,0.,24.0
1986-01-25 19:49:23.660 ,1,0,0.,24.0,0.,24.0,0.,24.0,0.,24.0
1986-01-25 19:49:47.660 ,2,1,0.,24.0,0.,24.0,0.,24.0,0.,24.0
1986-01-25 19:50:11.660 ,2,0,0.,24.0,0.,24.0,0.,24.0,0.,24.0
1986-01-25 19:50:35.660 ,3,1,0.,24.0,0.,24.0,0.,24.0,0.,24.0
1986-01-25 19:50:59.660 ,3,0,0.,24.0,0.,24.0,0.,24.0,0.,24.0
1986-01-25 19:51:23.660 ,4,1,0.,24.0,0.,24.0,0.,24.0,0.,24.0
1986-01-25 19:51:47.660 ,4,0,0.,24.0,0.,24.0,0.,24.0,0.,24.0
1986-01-25 19:52:11.660 ,5,1,0.,24.0,0.,24.0,0.,24.0,0.,24.0
1986-01-25 19:52:35.660 ,5,0,0.,24.0,0.,24.0,0.,24.0,0.,24.0
1986-01-25 19:52:59.660 ,6,1,0.,24.0,0.,24.0,0.,24.0,0.,24.0
1986-01-25 19:53:23.660 ,6,0,0.,24.0,0.,24.0,0.,24.0,0.,24.0
1986-01-25 19:53:47.660 ,7,1,7.,24.0,0.,24.0,0.,24.0,0.,24.0
1986-01-25 19:54:11.660 ,7,0,30.,24.0,0.,24.0,0.,24.0,0.,24.0
1986-01-25 19:54:35.660 ,7,1,25.,24.0,0.,24.0,0.,24.0,0.,24.0
1986-01-25 19:54:59.660 ,7,0,24.,24.0,0.,24.0,0.,24.0,0.,24.0
1986-01-25 19:55:23.660 ,6,1,25.,24.0,0.,24.0,0.,24.0,0.,24.0
1986-01-25 19:55:47.660 ,6,0,0.,24.0,0.,24.0,0.,24.0,0.,24.0
1986-01-25 19:56:11.660 ,5,1,0.,24.0,0.,24.0,0.,24.0,0.,24.0
1986-01-25 19:56:35.660 ,5,0,0.,24.0,0.,24.0,0.,24.0,0.,24.0
1986-01-25 19:56:59.660 ,4,1,0.,24.0,0.,24.0,0.,24.0,0.,24.0
1986-01-25 19:57:23.660 ,4,0,0.,24.0,0.,24.0,0.,24.0,0.,24.0
1986-01-25 19:57:47.660 ,3,1,0.,24.0,0.,24.0,0.,24.0,0.,24.0
1986-01-25 19:58:11.660 ,3,0,0.,24.0,0.,24.0,0.,24.0,0.,24.0
1986-01-25 19:58:35.660 ,2,1,0.,24.0,0.,24.0,0.,24.0,0.,24.0
1986-01-25 19:58:59.660 ,2,0,0.,24.0,0.,24.0,0.,24.0,0.,24.0
1986-01-25 19:59:23.660 ,1,1,0.,24.0,0.,24.0,0.,24.0,0.,24.0
1986-01-25 19:59:47.660 ,1,0,0.,24.0,0.,24.0,0.,24.0,0.,24.0
1986-01-25 20:00:11.660 ,0,1,0.,24.0,0.,24.0,0.,24.0,0.,24.0
1986-01-25 20:00:35.660 ,0,0,0.,24.0,0.,24.0,0.,24.0,0.,24.0
1986-01-25 20:00:59.660 ,0,1,0.,24.0,0.,24.0,0.,24.0,0.,24.0
1986-01-25 20:01:23.660 ,0,0,0.,24.0,0.,24.0,0.,24.0,0.,24.0
1986-01-25 20:01:47.660 ,1,1,0.,24.0,0.,24.0,0.,24.0,0.,24.0
1986-01-25 20:02:11.660 ,1,0,0.,24.0,0.,24.0,0.,24.0,0.,24.0
1986-01-25 20:02:35.660 ,2,1,0.,24.0,0.,24.0,0.,24.0,0.,24.0
1986-01-25 20:02:59.660 ,2,0,0.,24.0,1.,24.0,0.,24.0,0.,24.0
1986-01-25 20:03:23.660 ,3,1,0.,24.0,0.,24.0,0.,24.0,0.,24.0
1986-01-25 20:03:47.660 ,3,0,0.,24.0,0.,24.0,0.,24.0,0.,24.0
1986-01-25 20:04:11.660 ,4,1,0.,24.0,1.,24.0,0.,24.0,0.,24.0
1986-01-25 20:04:35.660 ,4,0,0.,24.0,0.,24.0,0.,24.0,0.,24.0
1986-01-25 20:04:59.660 ,5,1,0.,24.0,0.,24.0,0.,24.0,0.,24.0
1986-01-25 20:05:23.660 ,5,0,0.,24.0,0.,24.0,0.,24.0,0.,24.0
1986-01-25 20:05:47.660 ,6,1,0.,24.0,0.,24.0,0.,24.0,0.,24.0
1986-01-25 20:06:11.660 ,6,0,0.,24.0,0.,24.0,0.,24.0,0.,24.0
1986-01-25 20:06:35.660 ,7,1,10.,24.0,0.,24.0,0.,24.0,0.,24.0
1986-01-25 20:06:59.660 ,7,0,30.,24.0,0.,24.0,0.,24.0,0.,24.0
1986-01-25 20:07:23.660 ,7,1,25.,24.0,0.,24.0,0.,24.0,0.,24.0
1986-01-25 20:07:47.660 ,7,0,22.,24.0,0.,24.0,0.,24.0,0.,24.0
1986-01-25 20:08:11.660 ,6,1,22.,24.0,0.,24.0,0.,24.0,0.,24.0
1986-01-25 20:08:35.660 ,6,0,0.,24.0,0.,24.0,0.,24.0,0.,24.0
1986-01-25 20:08:59.660 ,5,1,0.,24.0,0.,24.0,0.,24.0,0.,24.0
1986-01-25 20:09:23.660 ,5,0,0.,24.0,0.,24.0,0.,24.0,0.,24.0
1986-01-25 20:09:47.660 ,4,1,0.,24.0,1.,24.0,0.,24.0,0.,24.0
1986-01-25 20:10:11.660 ,4,0,0.,24.0,0.,24.0,0.,24.0,0.,24.0
1986-01-25 20:10:35.660 ,3,1,0.,24.0,0.,24.0,0.,24.0,0.,24.0
1986-01-25 20:10:59.660 ,3,0,0.,24.0,0.,24.0,0.,24.0,0.,24.0
1986-01-25 20:11:23.660 ,2,1,0.,24.0,0.,24.0,0.,24.0,0.,24.0
1986-01-25 20:11:47.660 ,2,0,0.,24.0,1.,24.0,0.,24.0,0.,24.0
1986-01-25 20:12:11.660 ,1,1,0.,24.0,0.,24.0,0.,24.0,0.,24.0
1986-01-25 20:12:35.660 ,1,0,0.,24.0,0.,24.0,0.,24.0,0.,24.0
1986-01-25 20:12:59.660 ,0,1,0.,24.0,0.,24.0,0.,24.0,0.,24.0
1986-01-25 20:13:23.660 ,0,0,0.,24.0,0.,24.0,0.,24.0,0.,24.0
1986-01-25 20:13:47.660 ,0,1,0.,24.0,0.,24.0,0.,24.0,0.,24.0
1986-01-25 20:14:11.660 ,0,0,0.,24.0,0.,24.0,0.,24.0,0.,24.0
1986-01-25 20:14:35.660 ,1,1,0.,24.0,0.,24.0,0.,24.0,0.,24.0
1986-01-25 20:14:59.660 ,1,0,0.,24.0,0.,24.0,0.,24.0,0.,24.0
1986-01-25 20:15:23.660 ,2,1,0.,24.0,0.,24.0,0.,24.0,0.,24.0
1986-01-25 20:15:47.660 ,2,0,0.,24.0,0.,24.0,0.,24.0,0.,24.0
1986-01-25 20:16:11.660 ,3,1,0.,24.0,0.,24.0,0.,24.0,0.,24.0
1986-01-25 20:16:35.660 ,3,0,0.,24.0,0.,24.0,0.,24.0,0.,24.0
1986-01-25 20:16:59.660 ,4,1,0.,24.0,0.,24.0,0.,24.0,0.,24.0
1986-01-25 20:17:23.660 ,4,0,0.,24.0,0.,24.0,0.,24.0,0.,24.0
1986-01-25 20:17:47.660 ,5,1,0.,24.0,0.,24.0,0.,24.0,0.,24.0
1986-01-25 20:18:11.660 ,5,0,0.,24.0,0.,24.0,0.,24.0,0.,24.0
1986-01-25 20:18:35.660 ,6,1,0.,24.0,0.,24.0,0.,24.0,0.,24.0
1986-01-25 20:18:59.660 ,6,0,0.,24.0,0.,24.0,0.,24.0,0.,24.0
1986-01-25 20:19:23.660 ,7,1,9.,24.0,1.,24.0,0.,24.0,0.,24.0
1986-01-25 20:19:47.660 ,7,0,28.,24.0,0.,24.0,0.,24.0,0.,24.0
1986-01-25 20:20:11.660 ,7,1,36.,24.0,0.,24.0,0.,24.0,0.,24.0
1986-01-25 20:20:35.660 ,7,0,33.,24.0,0.,24.0,0.,24.0,0.,24.0
1986-01-25 20:20:59.660 ,6,1,33.,24.0,0.,24.0,0.,24.0,0.,24.0
1986-01-25 20:21:23.660 ,6,0,0.,24.0,0.,24.0,0.,24.0,0.,24.0
1986-01-25 20:21:47.660 ,5,1,0.,24.0,0.,24.0,0.,24.0,0.,24.0
1986-01-25 20:22:11.660 ,5,0,0.,24.0,0.,24.0,0.,24.0,0.,24.0
1986-01-25 20:22:35.660 ,4,1,0.,24.0,1.,24.0,0.,24.0,0.,24.0
1986-01-25 20:22:59.660 ,4,0,0.,24.0,0.,24.0,0.,24.0,0.,24.0
1986-01-25 20:23:23.660 ,3,1,0.,24.0,1.,24.0,0.,24.0,0.,24.0
1986-01-25 20:23:47.660 ,3,0,0.,24.0,0.,24.0,0.,24.0,0.,24.0
1986-01-25 20:24:11.660 ,2,1,0.,24.0,0.,24.0,0.,24.0,0.,24.0
1986-01-25 20:24:35.660 ,2,0,0.,24.0,0.,24.0,0.,24.0,0.,24.0
1986-01-25 20:24:59.660 ,1,1,0.,24.0,0.,24.0,0.,24.0,0.,24.0
1986-01-25 20:25:23.660 ,1,0,0.,24.0,0.,24.0,0.,24.0,0.,24.0
1986-01-25 20:25:47.660 ,0,1,0.,24.0,0.,24.0,0.,24.0,0.,24.0
1986-01-25 20:26:11.660 ,0,0,0.,24.0,0.,24.0,0.,24.0,0.,24.0
1986-01-25 20:26:35.660 ,0,1,0.,24.0,0.,24.0,0.,24.0,0.,24.0
1986-01-25 20:26:59.660 ,0,0,0.,24.0,0.,24.0,0.,24.0,0.,24.0
1986-01-25 20:27:23.660 ,1,1,0.,24.0,0.,24.0,0.,24.0,0.,24.0
1986-01-25 20:27:47.660 ,1,0,0.,24.0,0.,24.0,0.,24.0,0.,24.0
1986-01-25 20:28:11.660 ,2,1,0.,24.0,0.,24.0,0.,24.0,0.,24.0
1986-01-25 20:28:35.660 ,2,0,0.,24.0,0.,24.0,0.,24.0,0.,24.0
1986-01-25 20:28:59.660 ,3,1,0.,24.0,0.,24.0,0.,24.0,0.,24.0
1986-01-25 20:29:23.660 ,3,0,0.,24.0,0.,24.0,0.,24.0,0.,24.0
1986-01-25 20:29:47.660 ,4,1,0.,24.0,0.,24.0,0.,24.0,0.,24.0
1986-01-25 20:30:11.660 ,4,0,0.,24.0,0.,24.0,0.,24.0,0.,24.0
1986-01-25 20:30:35.660 ,5,1,0.,24.0,0.,24.0,0.,24.0,0.,24.0
1986-01-25 20:30:59.660 ,5,0,0.,24.0,0.,24.0,0.,24.0,0.,24.0
1986-01-25 20:31:23.660 ,6,1,1.,24.0,0.,24.0,0.,24.0,0.,24.0
1986-01-25 20:31:47.660 ,6,0,0.,24.0,0.,24.0,0.,24.0,0.,24.0
1986-01-25 20:32:11.660 ,7,1,10.,24.0,0.,24.0,0.,24.0,0.,24.0
1986-01-25 20:32:35.660 ,7,0,22.,24.0,0.,24.0,0.,24.0,0.,24.0
1986-01-25 20:32:59.660 ,7,1,20.,24.0,0.,24.0,0.,24.0,0.,24.0
1986-01-25 20:33:23.660 ,7,0,32.,24.0,0.,24.0,0.,24.0,0.,24.0
1986-01-25 20:33:47.660 ,6,1,24.,24.0,0.,24.0,0.,24.0,0.,24.0
1986-01-25 20:34:11.660 ,6,0,0.,24.0,0.,24.0,0.,24.0,0.,24.0